Regional Weather Roundup
Issued by NWS

Home | Current Version | Previous Version | Text Only | Print | Product List | Glossary Off
Versions: 1 2 3 4 5 6 7 8 9 10 11 12 13 14 15 16 17 18 19 20 21 22 23 24 25 26 27

000
ASUS45 KBOU 301207
RWRCO

WEATHER ROUNDUP FOR COLORADO
NATIONAL WEATHER SERVICE DENVER/BOULDER CO
600 AM MDT SAT APR 30 2016

NOTE: "FAIR" INDICATES FEW OR NO CLOUDS BELOW 12000 FEET WITH NO
SIGNIFICANT WEATHER AND/OR OBSTRUCTIONS TO VISIBILITY.

COZ001>005-013-030-031-301300-
...NORTHWEST COLORADO...

CITY           SKY/WX    TMP DP  RH WIND       PRES   REMARKS
CRAIG          LGT SNOW  34  31  88 SW12      29.87R FOG     WCI  25
HAYDEN         CLOUDY    30  28  93 CALM      29.86R
MEEKER         LGT SNOW  34  31  88 SW6       29.87F FOG     WCI  29
MOUNT WERNER   NOT AVBL
STEAMBOAT SPGS CLOUDY    30  30  98 E3        29.86S
WALDEN         CLOUDY    25  21  86 NW12      29.46F WCI  14
$$

COZ006>008-011-301300-
...WEST CENTRAL VALLEYS...

CITY           SKY/WX    TMP DP  RH WIND       PRES   REMARKS
GRAND JUNCTION CLOUDY    40  39  97 CALM      29.84S
MONTROSE       CLOUDY    40  36  86 S3        29.86S
EAGLE          CLOUDY    34  34 100 CALM      29.85F
RIFLE          FAIR      40  29  64 NW13      29.85F
DELTA          NOT AVBL
NUCLA          NOT AVBL
$$

COZ017>023-064>068-301300-
...SOUTHWEST COLORADO...

CITY           SKY/WX    TMP DP  RH WIND       PRES   REMARKS
DURANGO        FAIR      23  21  92 NE6       29.84F WCI  16
CORTEZ         FAIR      29  27  92 E5        29.86S WCI  24
PAGOSA SPRINGS CLOUDY    33  33 100 CALM      29.86S
TELLURIDE      CLOUDY    30  30 100 CALM      29.89S
WOLF CREEK PAS FOG       18  18 100 SW16      29.90S VSB 3/4 WCI   3
$$

COZ009-010-012-014-032>034-037-058>063-301300-
...CENTRAL COLORADO...

CITY           SKY/WX    TMP DP  RH WIND       PRES   REMARKS
ASPEN          CLOUDY    33  30  88 CALM      29.84S
BUENA VISTA    CLOUDY    23  21  93 SW5       29.83S WCI  16
COPPER MTN     NOT AVBL
BERTHOUD PASS  SNOW      12   3  67 N18       29.82S VSB 1/4 WCI  -5
COTTONWOOD PAS LGT SNOW  28  25  86 CALM      29.82S
GUNNISON       CLOUDY    34  28  80 CALM      29.84F
KREMMLING      CLOUDY    32  25  74 N5        29.86S WCI  27
LEADVILLE      CLOUDY    24  22  91 CALM      29.82S
MONARCH PASS   CLOUDY    21  19  93 MISG      29.94S
SALIDA         CLOUDY    31  28  89 CALM      29.90F
SUNLIGHT       FOG      N/A N/A N/A CALM      29.89F VSB 1/2
WILKERSON PASS CLOUDY   N/A N/A N/A N8        29.85S
$$

COZ069>075-301300-
...SAN LUIS VALLEY/SANGRE DE CRISTO MOUNTAINS...

CITY           SKY/WX    TMP DP  RH WIND       PRES   REMARKS
ALAMOSA        CLOUDY    32  30  92 MISG      29.82S
LA VETA PASS   FOG       27  25  93 MISG      29.83R VSB 1
SAGUACHE       MIX PCPN  32  30  93 CALM      29.83F
$$

COZ035-036-038>040-301300-
...NORTHERN COLORADO FRONT RANGE...

CITY           SKY/WX    TMP DP  RH WIND       PRES   REMARKS
DENVER INTL AP LGT SNOW  32  28  85 N14       29.87S VSB 1   WCI  22
DMNS CITY PARK   N/A     32  32  98 N8        29.89S WCI  25
AURORA         FLURRIES  31  31 100 NW10      29.87S WCI  22
FRONT RANGE AP NOT AVBL
ERIE MUNI ARPT CLOUDY    33  33  99 N5        29.89F WCI  29
BOULDER MUN AP FLURRIES  32  32 100 CALM      29.88F
CENTENNIAL     LGT SNOW  31  30  96 N14       29.86S FOG     WCI  21
BROOMFIELD     LGT SNOW  32  32 100 N10       29.89S WCI  24
FORT COLLINS   FAIR      34  30  86 N13       29.90S WCI  25
LONGMONT       MOCLDY    36  33  90 N6        29.91S FOG
$$

COZ041-046-047-076>085-087-088-301300-
...PIKES PEAK/PALMER DIVIDE AND SOUTHERN FOOTHILLS...

CITY           SKY/WX    TMP DP  RH WIND       PRES   REMARKS
COLO. SPRINGS  CLOUDY    33  26  75 N14       29.83F WCI  23
A. F. ACADEMY  FAIR      30  28  93 N16       29.82S WCI  19
SCHRIEVER AFB  NOT AVBL
ELLICOTT       NOT AVBL
FALCON         CLOUDY    29  26  90 N16G23    29.82F WCI  17
FORT CARSON    NOT AVBL
LIMON          LGT SNOW  30  29  96 N16       29.82S FOG     WCI  19
MONUMENT HILL  CLOUDY    27  27 100 N16       29.85S FOG     WCI  14
TRINIDAD       CLOUDY    27  24  89 W5        29.85R WCI  22
$$

COZ042>045-048>051-090-091-301300-
...NORTHEAST COLORADO...

CITY           SKY/WX    TMP DP  RH WIND       PRES   REMARKS
GREELEY ARPT   FAIR      34  30  86 N12       29.90R WCI  25
AKRON          SNOW      30  29  96 N15       29.83S VSB 1/4 WCI  19
BURLINGTON     CLOUDY    32  29  88 N15       29.79F WCI  22
WRAY           NOT AVBL
STERLING       CLOUDY    32  32 100 N9        29.85R WCI  24
HOLYOKE        NOT AVBL
FORT MORGAN    LGT SNOW  32  31  96 NW10      29.87S WCI  24
$$

COZ086-089-092>099-301300-
...SOUTHEAST COLORADO...

CITY           SKY/WX    TMP DP  RH WIND       PRES   REMARKS
PUEBLO         MOCLDY    37  33  85 NW6       29.85R
LA JUNTA       FAIR      36  34  92 W8        29.85R
LAMAR          FAIR      34  32  92 W8        29.82S WCI  27
SPRINGFIELD      N/A     33  32  96 NW17G24   29.81S WCI  22
$$




USA.gov is the U.S. government's official web portal to all federal, state and local government web resources and services.